Location: Cranford
(40.6578°N, 74.3024°W)
Time: 12:37:18
(UTC+00:00)

X-37B - Visible Passes

Search period start: 28 November 2022 00:00
Search period end: 08 December 2022 00:00
Orbit: 277 x 277 km, 45.0° (Epoch: 01 November)

Date Brightness Start Highest point End Pass type
(mag) Time Alt. Az. Time Alt. Az. Time Alt. Az.
05 Dec 3.1 23:30:50 10° SW 23:31:11 13° SW 23:31:11 13° SW visible
06 Dec 2.9 23:31:17 10° WSW 23:32:02 17° SW 23:32:02 17° SW visible
07 Dec 2.9 23:31:57 10° WSW 23:32:48 19° WSW 23:32:48 19° WSW visible
